Time,TemperatureF,DewpointF,PressureIn,WindDirection,WindDirectionDegrees,WindSpeedMPH,WindSpeedGustMPH,Humidity,HourlyPrecipIn,Conditions,Clouds,dailyrainin,SoftwareType,DateUTC
2013-02-18 00:00:00,11.1,-2.3,30.10,West,262,8.3,8.3,54,0.00,,,0.00,VWS V14.01,2013-02-18 05:00:00,
2013-02-18 00:01:00,11.1,-2.3,30.10,WSW,258,8.7,10.1,54,0.00,,,0.00,VWS V14.01,2013-02-18 05:01:00,
2013-02-18 00:04:00,11.1,-2.3,30.10,NNW,340,3.1,10.1,54,0.00,,,0.00,VWS V14.01,2013-02-18 05:04:00,
2013-02-18 00:09:00,11.1,-2.3,30.10,WNW,298,7.6,7.6,54,0.00,,,0.00,VWS V14.01,2013-02-18 05:09:00,
2013-02-18 00:14:00,11.1,-2.3,30.10,West,280,4.5,7.6,54,0.00,,,0.00,VWS V14.01,2013-02-18 05:14:00,
2013-02-18 00:19:00,11.1,-2.3,30.10,NW,304,2.7,10.1,54,0.00,,,0.00,VWS V14.01,2013-02-18 05:19:00,
2013-02-18 00:24:00,10.9,-2.4,30.13,NW,305,3.6,10.5,54,0.00,,,0.00,VWS V14.01,2013-02-18 05:24:00,
2013-02-18 00:29:00,10.9,-2.4,30.13,West,276,7.6,8.3,54,0.00,,,0.00,VWS V14.01,2013-02-18 05:29:00,
2013-02-18 00:34:00,11.1,-2.3,30.13,NW,312,4.0,6.3,54,0.00,,,0.00,VWS V14.01,2013-02-18 05:34:00,
2013-02-18 00:39:00,11.1,-2.3,30.13,NW,308,4.0,7.6,54,0.00,,,0.00,VWS V14.01,2013-02-18 05:39:00,
2013-02-18 00:44:00,11.1,-2.3,30.13,West,278,9.6,9.6,54,0.00,,,0.00,VWS V14.01,2013-02-18 05:44:00,
2013-02-18 00:49:00,10.9,-2.4,30.13,NW,307,4.0,8.1,54,0.00,,,0.00,VWS V14.01,2013-02-18 05:49:00,
2013-02-18 00:54:00,11.1,-2.3,30.13,West,269,3.1,6.3,54,0.00,,,0.00,VWS V14.01,2013-02-18 05:54:00,
2013-02-18 00:59:00,11.1,-2.3,30.13,WNW,283,3.6,6.3,54,0.00,,,0.00,VWS V14.01,2013-02-18 05:59:00,
2013-02-18 01:04:00,11.1,-2.3,30.13,WNW,297,3.1,5.8,54,0.00,,,0.00,VWS V14.01,2013-02-18 06:04:00,
2013-02-18 01:09:00,11.1,-2.3,30.10,WNW,289,4.0,4.0,54,0.00,,,0.00,VWS V14.01,2013-02-18 06:09:00,
2013-02-18 01:14:00,11.1,-2.3,30.10,WNW,287,4.0,7.2,54,0.00,,,0.00,VWS V14.01,2013-02-18 06:14:00,
2013-02-18 01:19:00,11.1,-2.3,30.13,NNW,329,4.9,5.8,54,0.00,,,0.00,VWS V14.01,2013-02-18 06:19:00,
2013-02-18 01:24:00,11.1,-2.3,30.13,WNW,296,4.0,8.7,54,0.00,,,0.00,VWS V14.01,2013-02-18 06:24:00,
2013-02-18 01:29:00,11.1,-2.3,30.13,NW,317,2.7,5.4,54,0.00,,,0.00,VWS V14.01,2013-02-18 06:29:00,
2013-02-18 01:34:00,11.1,-2.3,30.13,WNW,295,4.0,7.6,54,0.00,,,0.00,VWS V14.01,2013-02-18 06:34:00,
2013-02-18 01:39:00,10.9,-2.4,30.13,WNW,293,0.0,4.9,54,0.00,,,0.00,VWS V14.01,2013-02-18 06:39:00,
2013-02-18 01:44:00,11.1,-2.3,30.13,NW,322,4.9,6.7,54,0.00,,,0.00,VWS V14.01,2013-02-18 06:44:00,
2013-02-18 01:49:00,10.9,-2.4,30.13,WNW,284,2.7,6.3,54,0.00,,,0.00,VWS V14.01,2013-02-18 06:49:00,
2013-02-18 01:55:00,11.1,-2.3,30.13,WNW,282,0.0,5.8,54,0.00,,,0.00,VWS V14.01,2013-02-18 06:55:00,
2013-02-18 02:00:00,11.1,-2.3,30.13,WNW,299,2.7,5.8,54,0.00,,,0.00,VWS V14.01,2013-02-18 07:00:00,
2013-02-18 02:05:00,11.1,-2.3,30.13,WNW,294,0.0,7.6,54,0.00,,,0.00,VWS V14.01,2013-02-18 07:05:00,
2013-02-18 02:10:00,11.3,-2.1,30.13,West,279,5.8,5.8,54,0.00,,,0.00,VWS V14.01,2013-02-18 07:10:00,
2013-02-18 02:15:00,11.1,-2.3,30.13,West,273,3.1,10.1,54,0.00,,,0.00,VWS V14.01,2013-02-18 07:15:00,
2013-02-18 02:20:00,11.1,-2.3,30.13,WNW,286,5.4,6.3,54,0.00,,,0.00,VWS V14.01,2013-02-18 07:20:00,
2013-02-18 02:25:00,11.1,-2.3,30.13,WNW,284,3.1,3.1,54,0.00,,,0.00,VWS V14.01,2013-02-18 07:25:00,
2013-02-18 02:30:00,11.1,-2.3,30.13,WSW,252,2.2,5.4,54,0.00,,,0.00,VWS V14.01,2013-02-18 07:30:00,
2013-02-18 02:35:00,11.1,-2.3,30.13,West,268,3.6,6.3,54,0.00,,,0.00,VWS V14.01,2013-02-18 07:35:00,
2013-02-18 02:40:00,11.3,-2.1,30.13,West,262,5.8,6.3,54,0.00,,,0.00,VWS V14.01,2013-02-18 07:40:00,
2013-02-18 02:45:00,11.3,-2.1,30.13,West,261,3.1,6.3,54,0.00,,,0.00,VWS V14.01,2013-02-18 07:45:00,
2013-02-18 02:50:00,11.3,-2.1,30.13,WNW,289,2.7,5.8,54,0.00,,,0.00,VWS V14.01,2013-02-18 07:50:00,
2013-02-18 02:55:00,11.3,-2.1,30.13,West,268,3.1,3.1,54,0.00,,,0.00,VWS V14.01,2013-02-18 07:55:00,
2013-02-18 03:00:00,11.3,-2.1,30.13,WSW,244,2.7,5.4,54,0.00,,,0.00,VWS V14.01,2013-02-18 08:00:00,
2013-02-18 03:05:00,11.7,-1.8,30.13,WSW,250,4.0,4.0,54,0.00,,,0.00,VWS V14.01,2013-02-18 08:05:00,
2013-02-18 03:10:00,11.7,-1.8,30.13,West,270,4.0,6.3,54,0.00,,,0.00,VWS V14.01,2013-02-18 08:10:00,
2013-02-18 03:15:00,11.7,-1.8,30.13,SW,233,4.0,4.0,54,0.00,,,0.00,VWS V14.01,2013-02-18 08:15:00,
2013-02-18 03:20:00,11.7,-1.8,30.13,SW,231,2.7,3.6,54,0.00,,,0.00,VWS V14.01,2013-02-18 08:20:00,
2013-02-18 03:25:00,11.7,-1.8,30.13,WSW,237,4.0,4.0,54,0.00,,,0.00,VWS V14.01,2013-02-18 08:25:00,
2013-02-18 03:30:00,11.8,-1.6,30.13,SW,230,4.0,4.0,54,0.00,,,0.00,VWS V14.01,2013-02-18 08:30:00,
2013-02-18 03:35:00,11.7,-1.8,30.13,West,260,5.4,7.6,54,0.00,,,0.00,VWS V14.01,2013-02-18 08:35:00,
2013-02-18 03:40:00,11.5,-1.9,30.13,West,265,8.3,8.3,54,0.00,,,0.00,VWS V14.01,2013-02-18 08:40:00,
2013-02-18 03:45:00,11.3,-2.1,30.13,SW,228,4.9,6.3,54,0.00,,,0.00,VWS V14.01,2013-02-18 08:45:00,
2013-02-18 03:50:00,10.9,-2.4,30.13,SW,231,2.7,2.7,54,0.00,,,0.00,VWS V14.01,2013-02-18 08:50:00,
2013-02-18 03:55:00,10.8,-2.6,30.13,West,273,5.4,5.4,54,0.00,,,0.00,VWS V14.01,2013-02-18 08:55:00,
2013-02-18 04:00:00,10.8,-2.6,30.13,WNW,283,3.1,5.8,54,0.00,,,0.00,VWS V14.01,2013-02-18 09:00:00,
2013-02-18 04:05:00,10.8,-2.6,30.16,SW,233,3.6,3.6,54,0.00,,,0.00,VWS V14.01,2013-02-18 09:05:00,
2013-02-18 04:10:00,10.6,-2.8,30.16,SW,214,3.6,4.0,54,0.00,,,0.00,VWS V14.01,2013-02-18 09:10:00,
2013-02-18 04:15:00,10.4,-2.9,30.16,WSW,239,3.1,8.1,54,0.00,,,0.00,VWS V14.01,2013-02-18 09:15:00,
2013-02-18 04:20:00,10.4,-2.9,30.16,SW,230,4.0,7.6,54,0.00,,,0.00,VWS V14.01,2013-02-18 09:20:00,
2013-02-18 04:26:00,10.6,-2.8,30.16,WSW,251,4.0,4.0,54,0.00,,,0.00,VWS V14.01,2013-02-18 09:26:00,
2013-02-18 04:31:00,10.4,-2.9,30.16,WSW,247,2.7,5.8,54,0.00,,,0.00,VWS V14.01,2013-02-18 09:31:00,
2013-02-18 04:36:00,10.4,-2.9,30.16,SW,219,3.1,5.8,54,0.00,,SCT023,0.00,VWS V14.01,2013-02-18 09:36:00,
2013-02-18 04:41:00,10.4,-2.9,30.16,WSW,248,5.4,8.1,54,0.00,,SCT023,0.00,VWS V14.01,2013-02-18 09:41:00,
2013-02-18 04:46:00,10.4,-2.9,30.16,SW,234,2.2,5.8,54,0.00,,SCT023,0.00,VWS V14.01,2013-02-18 09:46:00,
2013-02-18 04:51:00,10.4,-2.9,30.16,West,264,5.8,6.3,54,0.00,,SCT023,0.00,VWS V14.01,2013-02-18 09:51:00,
2013-02-18 04:56:00,10.4,-2.9,30.16,SW,234,5.8,5.8,54,0.00,,SCT023,0.00,VWS V14.01,2013-02-18 09:56:00,
2013-02-18 05:01:00,10.4,-2.9,30.16,WSW,251,4.0,5.8,54,0.00,,SCT023,0.00,VWS V14.01,2013-02-18 10:01:00,
2013-02-18 05:06:00,10.4,-2.9,30.16,WSW,240,5.4,5.4,54,0.00,,SCT023,0.00,VWS V14.01,2013-02-18 10:06:00,
2013-02-18 05:11:00,10.6,-2.8,30.16,WSW,240,3.1,4.9,54,0.00,,SCT023,0.00,VWS V14.01,2013-02-18 10:11:00,
2013-02-18 05:16:00,10.6,-2.8,30.16,SW,230,5.4,7.6,54,0.00,,SCT023,0.00,VWS V14.01,2013-02-18 10:16:00,
2013-02-18 05:21:00,10.8,-2.6,30.16,SW,223,3.1,4.9,54,0.00,,SCT023,0.00,VWS V14.01,2013-02-18 10:21:00,
2013-02-18 05:26:00,10.6,-2.8,30.16,SSW,203,8.1,8.1,54,0.00,,SCT023,0.00,VWS V14.01,2013-02-18 10:26:00,
2013-02-18 05:31:00,10.4,-2.9,30.16,SW,220,2.7,6.3,54,0.00,,SCT023,0.00,VWS V14.01,2013-02-18 10:31:00,
2013-02-18 05:36:00,10.2,-3.1,30.19,WSW,239,4.0,5.4,54,0.00,,SCT023,0.00,VWS V14.01,2013-02-18 10:36:00,
2013-02-18 05:41:00,10.2,-3.1,30.19,SW,227,5.8,7.6,54,0.00,,SCT023,0.00,VWS V14.01,2013-02-18 10:41:00,
2013-02-18 05:46:00,9.9,-3.5,30.19,SW,227,5.4,5.4,54,0.00,,SCT023,0.00,VWS V14.01,2013-02-18 10:46:00,
2013-02-18 05:51:00,9.7,-3.6,30.19,SW,231,2.7,4.9,54,0.00,,SCT023,0.00,VWS V14.01,2013-02-18 10:51:00,
2013-02-18 05:56:00,9.5,-3.8,30.19,SW,227,2.7,4.9,54,0.00,,SCT023,0.00,VWS V14.01,2013-02-18 10:56:00,
2013-02-18 06:01:00,9.5,-3.8,30.19,SW,217,3.6,7.6,54,0.00,,SCT023,0.00,VWS V14.01,2013-02-18 11:01:00,
2013-02-18 06:06:00,9.5,-3.8,30.16,SW,231,4.0,5.4,54,0.00,,SCT023,0.00,VWS V14.01,2013-02-18 11:06:00,
2013-02-18 06:11:00,9.1,-4.1,30.16,SW,228,3.1,3.6,54,0.00,,SCT023,0.00,VWS V14.01,2013-02-18 11:11:00,
2013-02-18 06:16:00,9.3,-4.0,30.16,SW,224,5.8,5.8,54,0.00,,SCT023,0.00,VWS V14.01,2013-02-18 11:16:00,
2013-02-18 06:21:00,9.5,-3.8,30.19,SW,228,3.6,5.4,54,0.00,,SCT023,0.00,VWS V14.01,2013-02-18 11:21:00,
2013-02-18 06:26:00,10.0,-3.3,30.19,SW,222,5.4,5.4,54,0.00,,SCT023,0.00,VWS V14.01,2013-02-18 11:26:00,
2013-02-18 06:32:00,10.0,-3.3,30.19,SW,223,4.9,5.4,54,0.00,,CLR,0.00,VWS V14.01,2013-02-18 11:32:00,
2013-02-18 06:37:00,10.2,-3.1,30.16,SW,222,4.5,5.4,54,0.00,,CLR,0.00,VWS V14.01,2013-02-18 11:37:00,
2013-02-18 06:42:00,10.4,-2.9,30.16,SW,223,3.1,5.4,54,0.00,,CLR,0.00,VWS V14.01,2013-02-18 11:42:00,
2013-02-18 06:47:00,10.4,-2.9,30.16,SW,224,4.9,5.8,54,0.00,,CLR,0.00,VWS V14.01,2013-02-18 11:47:00,
2013-02-18 06:52:00,10.8,-2.6,30.19,SW,218,4.0,5.8,54,0.00,,CLR,0.00,VWS V14.01,2013-02-18 11:52:00,
2013-02-18 06:57:00,10.8,-2.6,30.19,SW,226,6.3,6.3,54,0.00,,CLR,0.00,VWS V14.01,2013-02-18 11:57:00,
2013-02-18 07:02:00,10.8,-2.6,30.19,WSW,237,5.4,5.4,54,0.00,,CLR,0.00,VWS V14.01,2013-02-18 12:02:00,
2013-02-18 07:07:00,10.9,-2.4,30.19,WSW,242,5.8,7.2,54,0.00,,CLR,0.00,VWS V14.01,2013-02-18 12:07:00,
2013-02-18 07:12:00,11.1,-2.3,30.19,WSW,240,8.1,8.3,54,0.00,,CLR,0.00,VWS V14.01,2013-02-18 12:12:00,
2013-02-18 07:17:00,11.1,-2.3,30.19,SW,219,5.8,5.8,54,0.00,,CLR,0.00,VWS V14.01,2013-02-18 12:17:00,
2013-02-18 07:22:00,11.1,-2.3,30.19,SW,234,4.9,6.3,54,0.00,,CLR,0.00,VWS V14.01,2013-02-18 12:22:00,
2013-02-18 07:28:00,10.9,-2.4,30.19,SW,219,5.4,8.1,54,0.00,,CLR,0.00,VWS V14.01,2013-02-18 12:28:00,
2013-02-18 07:33:00,10.9,-2.4,30.19,WSW,241,4.0,6.3,54,0.00,,FEW023,0.00,VWS V14.01,2013-02-18 12:33:00,
2013-02-18 07:38:00,10.8,-2.6,30.19,SW,217,4.0,5.4,54,0.00,,FEW023,0.00,VWS V14.01,2013-02-18 12:38:00,
2013-02-18 07:43:00,10.8,-2.6,30.19,SSW,211,4.0,5.4,54,0.00,,FEW023,0.00,VWS V14.01,2013-02-18 12:43:00,
2013-02-18 07:48:00,10.8,-2.6,30.19,SSW,213,4.0,5.4,54,0.00,,FEW023,0.00,VWS V14.01,2013-02-18 12:48:00,
2013-02-18 07:53:00,10.8,-2.6,30.19,SW,216,4.0,5.4,54,0.00,,FEW023,0.00,VWS V14.01,2013-02-18 12:53:00,
2013-02-18 07:58:00,10.9,-2.4,30.19,SW,216,3.1,4.0,54,0.00,,FEW023,0.00,VWS V14.01,2013-02-18 12:58:00,
2013-02-18 08:03:00,11.1,-2.3,30.19,SW,216,4.0,4.0,54,0.00,,FEW023,0.00,VWS V14.01,2013-02-18 13:03:00,
2013-02-18 08:08:00,11.1,-2.3,30.19,SW,217,4.0,4.0,54,0.00,,FEW023,0.00,VWS V14.01,2013-02-18 13:08:00,
2013-02-18 08:14:00,11.1,-2.3,30.19,SW,218,5.4,5.4,54,0.00,,FEW023,0.00,VWS V14.01,2013-02-18 13:14:00,
2013-02-18 08:19:00,11.7,-1.8,30.19,SW,217,3.6,4.0,54,0.00,,FEW023,0.00,VWS V14.01,2013-02-18 13:19:00,
2013-02-18 08:24:00,11.8,-1.6,30.19,SSW,213,3.6,5.4,54,0.00,,FEW023,0.00,VWS V14.01,2013-02-18 13:24:00,
2013-02-18 08:29:00,12.0,-1.4,30.19,SSW,212,3.6,5.4,54,0.00,,FEW023,0.00,VWS V14.01,2013-02-18 13:29:00,
2013-02-18 08:34:00,12.4,-1.1,30.19,SSW,197,3.6,4.0,54,0.00,,SCT250,0.00,VWS V14.01,2013-02-18 13:34:00,
2013-02-18 08:40:00,12.7,-0.8,30.19,SSW,203,3.1,5.4,54,0.00,,SCT250,0.00,VWS V14.01,2013-02-18 13:40:00,
2013-02-18 08:45:00,12.9,-0.6,30.19,SSW,211,3.1,5.8,54,0.00,,SCT250,0.00,VWS V14.01,2013-02-18 13:45:00,
2013-02-18 08:50:00,12.9,-0.6,30.19,SSW,209,3.1,4.0,54,0.00,,SCT250,0.00,VWS V14.01,2013-02-18 13:50:00,
2013-02-18 08:55:00,13.3,-0.2,30.19,SSW,208,4.9,4.9,54,0.00,,SCT250,0.00,VWS V14.01,2013-02-18 13:55:00,
2013-02-18 09:00:00,13.6,0.1,30.19,SW,217,5.4,5.8,54,0.00,,SCT250,0.00,VWS V14.01,2013-02-18 14:00:00,
2013-02-18 09:05:00,13.8,0.3,30.19,SSW,208,3.1,3.1,54,0.00,,SCT250,0.00,VWS V14.01,2013-02-18 14:05:00,
2013-02-18 09:10:00,14.0,3.4,30.19,SSW,196,2.7,3.6,62,0.00,,SCT250,0.00,VWS V14.01,2013-02-18 14:10:00,
2013-02-18 09:15:00,14.2,3.6,30.19,SSW,209,3.1,3.1,62,0.00,,SCT250,0.00,VWS V14.01,2013-02-18 14:15:00,
2013-02-18 09:20:00,14.2,3.6,30.19,SSW,205,3.1,3.1,62,0.00,,SCT250,0.00,VWS V14.01,2013-02-18 14:20:00,
2013-02-18 09:25:00,14.5,3.9,30.19,South,185,3.1,3.6,62,0.00,,SCT250,0.00,VWS V14.01,2013-02-18 14:25:00,
2013-02-18 09:30:00,14.9,4.2,30.19,SSW,196,3.1,3.1,62,0.00,,SCT250,0.00,VWS V14.01,2013-02-18 14:30:00,
2013-02-18 09:35:00,15.3,4.6,30.16,SSE,163,3.1,4.5,62,0.00,,SCT250,0.00,VWS V14.01,2013-02-18 14:35:00,
2013-02-18 09:40:00,15.6,4.9,30.16,South,175,2.7,4.9,62,0.00,,SCT250,0.00,VWS V14.01,2013-02-18 14:40:00,
2013-02-18 09:45:00,15.6,4.6,30.16,South,175,2.7,3.6,61,0.00,,SCT250,0.00,VWS V14.01,2013-02-18 14:45:00,
2013-02-18 09:50:00,16.2,5.1,30.16,SSE,162,2.7,4.0,61,0.00,,SCT250,0.00,VWS V14.01,2013-02-18 14:50:00,
2013-02-18 09:55:00,16.3,5.3,30.16,SSE,167,0.0,3.1,61,0.00,,SCT250,0.00,VWS V14.01,2013-02-18 14:55:00,
2013-02-18 10:00:00,16.5,5.1,30.16,South,190,3.6,3.6,60,0.00,,SCT250,0.00,VWS V14.01,2013-02-18 15:00:00,
2013-02-18 10:05:00,16.7,5.2,30.16,SSW,193,2.7,3.6,60,0.00,,SCT250,0.00,VWS V14.01,2013-02-18 15:05:00,
2013-02-18 10:10:00,17.1,5.6,30.16,SSW,212,4.0,5.4,60,0.00,,SCT250,0.00,VWS V14.01,2013-02-18 15:10:00,
2013-02-18 10:16:00,17.4,5.6,30.16,SW,214,6.3,7.6,59,0.00,,SCT250,0.00,VWS V14.01,2013-02-18 15:16:00,
2013-02-18 10:21:00,17.8,5.9,30.16,South,172,4.0,4.9,59,0.00,,SCT250,0.00,VWS V14.01,2013-02-18 15:21:00,
2013-02-18 10:26:00,18.1,6.2,30.16,SSE,165,2.7,4.0,59,0.00,,SCT250,0.00,VWS V14.01,2013-02-18 15:26:00,
2013-02-18 10:31:00,18.0,5.7,30.16,South,185,2.2,4.0,58,0.00,,SCT250,0.00,VWS V14.01,2013-02-18 15:31:00,
2013-02-18 10:36:00,18.5,6.2,30.16,SW,219,3.6,5.4,58,0.00,,SCT250,0.00,VWS V14.01,2013-02-18 15:36:00,
2013-02-18 10:41:00,18.7,6.4,30.16,SSE,166,3.1,3.1,58,0.00,,SCT250,0.00,VWS V14.01,2013-02-18 15:41:00,
2013-02-18 10:46:00,19.0,6.3,30.16,WSW,240,3.6,5.8,57,0.00,,SCT250,0.00,VWS V14.01,2013-02-18 15:46:00,
2013-02-18 10:51:00,19.4,6.7,30.16,SSW,207,5.8,6.3,57,0.00,,SCT250,0.00,VWS V14.01,2013-02-18 15:51:00,
2013-02-18 10:56:00,19.4,6.7,30.16,SSE,161,2.7,3.6,57,0.00,,SCT250,0.00,VWS V14.01,2013-02-18 15:56:00,
2013-02-18 11:01:00,19.2,5.7,30.16,WSW,242,2.7,3.6,55,0.00,,SCT250,0.00,VWS V14.01,2013-02-18 16:01:00,
2013-02-18 11:06:00,19.6,6.1,30.16,SW,215,4.9,5.4,55,0.00,,SCT250,0.00,VWS V14.01,2013-02-18 16:06:00,
2013-02-18 11:11:00,20.1,6.6,30.16,SSW,206,6.3,7.6,55,0.00,,SCT250,0.00,VWS V14.01,2013-02-18 16:11:00,
2013-02-18 11:16:00,20.3,7.1,30.16,SW,225,4.9,8.1,56,0.00,,SCT250,0.00,VWS V14.01,2013-02-18 16:16:00,
2013-02-18 11:21:00,20.1,6.2,30.16,South,169,6.3,6.3,54,0.00,,SCT250,0.00,VWS V14.01,2013-02-18 16:21:00,
2013-02-18 11:26:00,20.3,6.7,30.16,SSE,155,7.6,8.1,55,0.00,,SCT250,0.00,VWS V14.01,2013-02-18 16:26:00,
2013-02-18 11:32:00,20.5,6.9,30.16,South,184,6.3,6.3,55,0.00,,SCT250,0.00,VWS V14.01,2013-02-18 16:32:00,
2013-02-18 11:37:00,21.0,7.4,30.16,South,174,5.4,8.7,55,0.00,,SCT250,0.00,VWS V14.01,2013-02-18 16:37:00,
2013-02-18 11:42:00,21.0,7.4,30.16,SSE,163,5.4,5.8,55,0.00,,SCT250,0.00,VWS V14.01,2013-02-18 16:42:00,
2013-02-18 11:47:00,21.2,7.6,30.16,South,177,5.8,5.8,55,0.00,,SCT250,0.00,VWS V14.01,2013-02-18 16:47:00,
2013-02-18 11:52:00,21.2,7.6,30.16,South,175,5.4,6.3,55,0.00,,SCT250,0.00,VWS V14.01,2013-02-18 16:52:00,
2013-02-18 11:57:00,21.6,7.9,30.16,SSE,148,6.3,6.3,55,0.00,,SCT250,0.00,VWS V14.01,2013-02-18 16:57:00,
2013-02-18 12:02:00,21.7,8.1,30.16,WSW,238,6.3,7.6,55,0.00,,SCT250,0.00,VWS V14.01,2013-02-18 17:02:00,
2013-02-18 12:07:00,21.7,8.1,30.13,SSW,197,3.6,6.3,55,0.04,,SCT250,0.04,VWS V14.01,2013-02-18 17:07:00,
2013-02-18 12:12:00,21.9,8.2,30.13,South,184,3.1,8.1,55,0.04,,SCT250,0.04,VWS V14.01,2013-02-18 17:12:00,
2013-02-18 12:17:00,22.1,8.4,30.13,ESE,110,4.0,6.3,55,0.04,,SCT250,0.04,VWS V14.01,2013-02-18 17:17:00,
2013-02-18 12:22:00,22.3,8.6,30.13,SSE,165,4.0,5.8,55,0.04,,SCT250,0.04,VWS V14.01,2013-02-18 17:22:00,
2013-02-18 12:27:00,22.5,8.3,30.13,ESE,121,3.6,5.4,54,0.04,,SCT250,0.04,VWS V14.01,2013-02-18 17:27:00,
2013-02-18 12:32:00,22.6,8.5,30.13,SSE,156,5.8,6.3,54,0.04,,SCT250,0.04,VWS V14.01,2013-02-18 17:32:00,
2013-02-18 12:37:00,22.8,8.7,30.13,SE,131,4.0,5.4,54,0.04,,SCT250,0.04,VWS V14.01,2013-02-18 17:37:00,
2013-02-18 12:42:00,23.0,8.9,30.13,South,171,5.8,7.6,54,0.04,,SCT250,0.04,VWS V14.01,2013-02-18 17:42:00,
2013-02-18 12:49:00,23.0,8.9,30.13,SE,131,5.8,5.8,54,0.04,,SCT250,0.04,VWS V14.01,2013-02-18 17:49:00,
2013-02-18 12:54:00,23.2,8.6,30.10,South,173,6.3,8.7,53,0.04,,SCT250,0.04,VWS V14.01,2013-02-18 17:54:00,
2013-02-18 12:59:00,23.5,8.9,30.10,SSE,151,6.3,8.1,53,0.04,,SCT250,0.04,VWS V14.01,2013-02-18 17:59:00,
2013-02-18 13:04:00,23.7,9.5,30.10,SSE,147,4.0,8.3,54,0.04,,SCT250,0.04,VWS V14.01,2013-02-18 18:04:00,
2013-02-18 13:09:00,23.7,9.1,30.10,ESE,120,3.6,8.1,53,0.00,,SCT250,0.04,VWS V14.01,2013-02-18 18:09:00,
2013-02-18 13:14:00,23.9,9.3,30.10,South,177,5.8,8.3,53,0.00,,SCT250,0.04,VWS V14.01,2013-02-18 18:14:00,
2013-02-18 13:19:00,24.1,9.4,30.10,South,171,8.7,8.7,53,0.00,,SCT250,0.04,VWS V14.01,2013-02-18 18:19:00,
2013-02-18 13:25:00,24.1,9.4,30.10,SSE,155,4.0,10.1,53,0.00,,SCT250,0.04,VWS V14.01,2013-02-18 18:25:00,
2013-02-18 13:30:00,24.3,9.6,30.10,South,172,6.3,8.3,53,0.00,,SCT250,0.04,VWS V14.01,2013-02-18 18:30:00,
2013-02-18 13:35:00,24.4,9.8,30.10,SE,140,7.6,8.3,53,0.00,,SCT250,0.04,VWS V14.01,2013-02-18 18:35:00,
2013-02-18 13:41:00,24.4,9.8,30.10,East,81,6.3,8.1,53,0.00,,SCT250,0.04,VWS V14.01,2013-02-18 18:41:00,
2013-02-18 13:46:00,24.6,9.9,30.10,East,99,6.3,7.6,53,0.00,,SCT250,0.04,VWS V14.01,2013-02-18 18:46:00,
2013-02-18 13:51:00,24.8,10.1,30.07,ESE,111,4.9,5.8,53,0.00,,SCT250,0.04,VWS V14.01,2013-02-18 18:51:00,
2013-02-18 13:56:00,24.8,10.1,30.07,SSE,162,3.1,6.3,53,0.00,,SCT250,0.04,VWS V14.01,2013-02-18 18:56:00,
2013-02-18 14:02:00,25.2,10.0,30.07,East,95,4.0,10.5,52,0.00,,BKN250,0.04,VWS V14.01,2013-02-18 19:02:00,
2013-02-18 14:07:00,25.5,10.4,30.07,SE,136,7.2,7.2,52,0.00,,BKN250,0.04,VWS V14.01,2013-02-18 19:07:00,
2013-02-18 14:12:00,25.9,10.7,30.07,SE,140,4.9,6.3,52,0.00,,BKN250,0.04,VWS V14.01,2013-02-18 19:12:00,
2013-02-18 14:17:00,26.2,11.0,30.07,SE,137,5.4,10.1,52,0.00,,BKN250,0.04,VWS V14.01,2013-02-18 19:17:00,
2013-02-18 14:22:00,26.8,11.1,30.07,SE,131,6.3,7.6,51,0.00,,BKN250,0.04,VWS V14.01,2013-02-18 19:22:00,
2013-02-18 14:27:00,27.0,11.3,30.07,South,180,4.9,8.1,51,0.00,,BKN250,0.04,VWS V14.01,2013-02-18 19:27:00,
2013-02-18 14:32:00,27.5,11.3,30.07,ESE,122,5.4,5.8,50,0.00,,BKN250,0.04,VWS V14.01,2013-02-18 19:32:00,
2013-02-18 14:37:00,27.9,11.6,30.07,SSE,165,5.8,8.1,50,0.00,,BKN250,0.04,VWS V14.01,2013-02-18 19:37:00,
2013-02-18 14:42:00,28.0,12.3,30.07,SSE,155,3.1,4.9,51,0.00,,BKN250,0.04,VWS V14.01,2013-02-18 19:42:00,
2013-02-18 14:47:00,28.6,12.3,30.07,SSE,163,5.8,5.8,50,0.00,,BKN250,0.04,VWS V14.01,2013-02-18 19:47:00,
2013-02-18 14:52:00,28.6,11.9,30.07,SSE,158,4.0,6.3,49,0.00,,BKN250,0.04,VWS V14.01,2013-02-18 19:52:00,
2013-02-18 14:57:00,28.8,11.6,30.07,SE,139,8.1,10.1,48,0.00,,BKN250,0.04,VWS V14.01,2013-02-18 19:57:00,
2013-02-18 15:02:00,28.9,12.2,30.07,SSE,160,6.3,8.1,49,0.00,,BKN250,0.04,VWS V14.01,2013-02-18 20:02:00,
2013-02-18 15:07:00,28.9,11.7,30.04,SE,146,5.8,6.3,48,0.00,,BKN250,0.04,VWS V14.01,2013-02-18 20:07:00,
2013-02-18 15:12:00,29.1,11.9,30.04,South,176,3.1,8.1,48,0.00,,BKN250,0.04,VWS V14.01,2013-02-18 20:12:00,
2013-02-18 15:17:00,29.3,12.1,30.04,SSE,153,3.1,5.8,48,0.00,,BKN250,0.04,VWS V14.01,2013-02-18 20:17:00,
2013-02-18 15:23:00,29.5,12.7,30.04,SE,131,3.1,5.4,49,0.00,,BKN250,0.04,VWS V14.01,2013-02-18 20:23:00,
2013-02-18 15:28:00,30.0,12.7,30.04,SE,124,6.3,6.3,48,0.00,,BKN250,0.04,VWS V14.01,2013-02-18 20:28:00,
2013-02-18 15:33:00,30.0,12.2,30.04,SE,136,3.1,8.1,47,0.00,,BKN250,0.04,VWS V14.01,2013-02-18 20:33:00,
2013-02-18 15:38:00,30.0,12.2,30.04,ESE,123,3.6,8.1,47,0.00,,BKN250,0.04,VWS V14.01,2013-02-18 20:38:00,
2013-02-18 15:43:00,29.8,12.1,30.04,ESE,121,3.6,6.3,47,0.00,,BKN250,0.04,VWS V14.01,2013-02-18 20:43:00,
2013-02-18 15:48:00,29.5,12.2,30.04,East,101,5.8,6.3,48,0.00,,BKN250,0.04,VWS V14.01,2013-02-18 20:48:00,
2013-02-18 15:53:00,29.3,12.5,30.04,ENE,72,3.1,5.8,49,0.00,,BKN250,0.04,VWS V14.01,2013-02-18 20:53:00,
2013-02-18 15:58:00,29.3,12.5,30.04,ESE,106,3.1,8.7,49,0.00,,BKN250,0.04,VWS V14.01,2013-02-18 20:58:00,
2013-02-18 16:03:00,29.3,12.5,30.04,SE,125,5.4,7.6,49,0.00,,BKN250,0.04,VWS V14.01,2013-02-18 21:03:00,
2013-02-18 16:08:00,29.3,12.5,30.04,ESE,105,5.4,7.6,49,0.00,,BKN250,0.04,VWS V14.01,2013-02-18 21:08:00,
2013-02-18 16:13:00,29.1,11.9,30.04,SE,126,10.5,10.5,48,0.00,,BKN250,0.04,VWS V14.01,2013-02-18 21:13:00,
2013-02-18 16:18:00,28.9,11.7,30.04,SE,141,4.9,8.1,48,0.00,,BKN250,0.04,VWS V14.01,2013-02-18 21:18:00,
2013-02-18 16:24:00,28.9,11.7,30.01,SSE,160,3.1,8.1,48,0.00,,BKN250,0.04,VWS V14.01,2013-02-18 21:24:00,
2013-02-18 16:29:00,28.9,11.7,30.01,SE,132,4.9,7.6,48,0.00,,BKN250,0.04,VWS V14.01,2013-02-18 21:29:00,
2013-02-18 16:34:00,28.9,11.7,30.01,ESE,117,6.3,6.3,48,0.00,,BKN250,0.04,VWS V14.01,2013-02-18 21:34:00,
2013-02-18 16:39:00,29.1,11.9,30.01,SE,128,6.3,8.3,48,0.00,,BKN250,0.04,VWS V14.01,2013-02-18 21:39:00,
2013-02-18 16:44:00,29.1,11.9,30.01,East,101,3.1,7.2,48,0.00,,BKN250,0.04,VWS V14.01,2013-02-18 21:44:00,
2013-02-18 16:49:00,29.1,11.9,30.01,ESE,103,5.8,8.3,48,0.00,,BKN250,0.04,VWS V14.01,2013-02-18 21:49:00,
2013-02-18 16:54:00,28.6,11.4,30.01,ESE,109,6.3,7.6,48,0.00,,BKN250,0.04,VWS V14.01,2013-02-18 21:54:00,
2013-02-18 16:59:00,28.4,11.2,30.01,ESE,107,8.7,8.7,48,0.00,,BKN250,0.04,VWS V14.01,2013-02-18 21:59:00,
2013-02-18 17:04:00,28.2,11.1,30.01,East,91,5.8,8.7,48,0.00,,BKN250,0.04,VWS V14.01,2013-02-18 22:04:00,
2013-02-18 17:09:00,28.0,10.9,30.01,ESE,107,5.8,10.1,48,0.00,,BKN250,0.04,VWS V14.01,2013-02-18 22:09:00,
2013-02-18 17:15:00,27.9,11.2,30.01,East,79,5.4,8.1,49,0.00,,BKN250,0.04,VWS V14.01,2013-02-18 22:15:00,
2013-02-18 17:20:00,27.5,10.9,30.01,East,93,5.8,9.2,49,0.00,,BKN250,0.04,VWS V14.01,2013-02-18 22:20:00,
2013-02-18 17:25:00,27.1,10.5,30.01,East,97,6.3,8.1,49,0.00,,BKN250,0.04,VWS V14.01,2013-02-18 22:25:00,
2013-02-18 17:30:00,27.0,10.4,30.01,East,100,5.4,5.4,49,0.00,,BKN250,0.04,VWS V14.01,2013-02-18 22:30:00,
2013-02-18 17:35:00,27.0,9.9,29.98,East,80,4.0,8.7,48,0.00,,BKN240,0.04,VWS V14.01,2013-02-18 22:35:00,
2013-02-18 17:40:00,26.6,10.0,29.98,ENE,76,7.6,8.1,49,0.00,,BKN240,0.04,VWS V14.01,2013-02-18 22:40:00,
2013-02-18 17:45:00,26.4,9.4,29.98,East,86,4.9,10.5,48,0.00,,BKN240,0.04,VWS V14.01,2013-02-18 22:45:00,
2013-02-18 17:50:00,26.2,9.2,29.98,ENE,75,3.6,11.4,48,0.00,,BKN240,0.04,VWS V14.01,2013-02-18 22:50:00,
2013-02-18 17:55:00,26.1,9.1,29.98,East,85,5.8,5.8,48,0.00,,BKN240,0.04,VWS V14.01,2013-02-18 22:55:00,
2013-02-18 18:01:00,26.1,9.1,29.98,ESE,104,8.3,8.7,48,0.00,,BKN240,0.04,VWS V14.01,2013-02-18 23:01:00,
2013-02-18 18:06:00,26.1,9.5,29.98,ESE,109,3.1,5.8,49,0.00,,BKN240,0.04,VWS V14.01,2013-02-18 23:06:00,
2013-02-18 18:11:00,25.9,9.4,29.98,ESE,111,5.4,6.3,49,0.00,,BKN240,0.04,VWS V14.01,2013-02-18 23:11:00,
2013-02-18 18:16:00,25.7,9.2,29.98,East,98,6.3,6.3,49,0.00,,BKN240,0.04,VWS V14.01,2013-02-18 23:16:00,
2013-02-18 18:21:00,25.7,9.2,29.98,East,94,4.9,8.1,49,0.00,,BKN240,0.04,VWS V14.01,2013-02-18 23:21:00,
2013-02-18 18:26:00,25.7,9.2,29.98,East,101,3.6,5.4,49,0.00,,BKN240,0.04,VWS V14.01,2013-02-18 23:26:00,
2013-02-18 18:31:00,25.5,9.0,29.98,SE,126,4.9,5.8,49,0.00,,BKN240,0.04,VWS V14.01,2013-02-18 23:31:00,
2013-02-18 18:36:00,25.5,9.0,29.98,East,90,3.6,4.9,49,0.00,,BKN250,0.04,VWS V14.01,2013-02-18 23:36:00,
2013-02-18 18:42:00,25.5,9.5,29.98,ESE,122,6.3,6.3,50,0.00,,BKN250,0.04,VWS V14.01,2013-02-18 23:42:00,
2013-02-18 18:47:00,25.3,9.3,29.98,East,97,5.4,5.8,50,0.00,,BKN250,0.04,VWS V14.01,2013-02-18 23:47:00,
2013-02-18 18:52:00,25.3,9.3,29.98,ESE,107,3.6,6.3,50,0.00,,BKN250,0.04,VWS V14.01,2013-02-18 23:52:00,
2013-02-18 18:57:00,25.3,9.8,29.98,SE,127,5.8,6.3,51,0.00,,BKN250,0.04,VWS V14.01,2013-02-18 23:57:00,
2013-02-18 19:02:00,25.3,9.8,29.98,ESE,120,5.8,6.3,51,0.00,,BKN250,0.04,VWS V14.01,2013-02-19 00:02:00,
2013-02-18 19:07:00,25.3,9.8,29.95,ESE,107,4.0,5.8,51,0.00,,BKN250,0.04,VWS V14.01,2013-02-19 00:07:00,
2013-02-18 19:12:00,25.3,9.8,29.95,ESE,105,4.9,4.9,51,0.00,,BKN250,0.04,VWS V14.01,2013-02-19 00:12:00,
2013-02-18 19:17:00,25.3,10.2,29.95,ESE,102,5.4,5.4,52,0.00,,BKN250,0.04,VWS V14.01,2013-02-19 00:17:00,
2013-02-18 19:22:00,25.3,10.2,29.95,ESE,108,5.4,5.8,52,0.00,,BKN250,0.04,VWS V14.01,2013-02-19 00:22:00,
2013-02-18 19:27:00,25.3,10.2,29.95,ESE,111,3.6,4.0,52,0.00,,BKN250,0.04,VWS V14.01,2013-02-19 00:27:00,
2013-02-18 19:33:00,25.3,10.2,29.95,East,94,3.6,5.8,52,0.00,,BKN240,0.04,VWS V14.01,2013-02-19 00:33:00,
2013-02-18 19:38:00,25.3,10.2,29.95,ESE,109,3.1,4.0,52,0.00,,BKN240,0.04,VWS V14.01,2013-02-19 00:38:00,
2013-02-18 19:43:00,25.3,10.2,29.95,ESE,113,4.0,4.9,52,0.00,,BKN240,0.04,VWS V14.01,2013-02-19 00:43:00,
2013-02-18 19:48:00,25.3,10.2,29.95,ESE,103,3.1,4.5,52,0.00,,BKN240,0.04,VWS V14.01,2013-02-19 00:48:00,
2013-02-18 19:53:00,25.3,10.2,29.92,ESE,103,4.9,5.8,52,0.00,,BKN240,0.04,VWS V14.01,2013-02-19 00:53:00,
2013-02-18 19:58:00,25.3,10.6,29.92,East,92,6.3,6.3,53,0.00,,BKN240,0.04,VWS V14.01,2013-02-19 00:58:00,
2013-02-18 20:04:00,25.3,10.6,29.92,ESE,105,4.0,5.4,53,0.00,,BKN240,0.04,VWS V14.01,2013-02-19 01:04:00,
2013-02-18 20:09:00,25.3,10.6,29.92,ESE,109,4.0,5.4,53,0.00,,BKN240,0.04,VWS V14.01,2013-02-19 01:09:00,
2013-02-18 20:15:00,25.3,10.6,29.92,ESE,113,4.0,6.3,53,0.00,,BKN240,0.04,VWS V14.01,2013-02-19 01:15:00,
2013-02-18 20:20:00,25.3,10.6,29.92,ESE,121,2.7,2.7,53,0.00,,BKN240,0.04,VWS V14.01,2013-02-19 01:20:00,
2013-02-18 20:25:00,25.3,10.6,29.92,East,88,3.1,3.6,53,0.00,,BKN240,0.04,VWS V14.01,2013-02-19 01:25:00,
2013-02-18 20:30:00,25.2,10.9,29.92,East,89,3.1,3.1,54,0.00,,BKN240,0.04,VWS V14.01,2013-02-19 01:30:00,
2013-02-18 20:36:00,24.8,10.9,29.89,ENE,73,3.1,4.0,55,0.00,,BKN230,0.04,VWS V14.01,2013-02-19 01:36:00,
2013-02-18 20:41:00,24.6,11.2,29.89,East,84,2.7,3.6,56,0.00,,BKN230,0.04,VWS V14.01,2013-02-19 01:41:00,
2013-02-18 20:46:00,24.6,11.2,29.89,NE,56,4.0,4.0,56,0.00,,BKN230,0.04,VWS V14.01,2013-02-19 01:46:00,
2013-02-18 20:51:00,24.4,11.0,29.89,ENE,74,2.7,4.0,56,0.00,,BKN230,0.04,VWS V14.01,2013-02-19 01:51:00,
2013-02-18 20:56:00,24.4,11.0,29.89,ENE,74,2.7,2.7,56,0.00,,BKN230,0.04,VWS V14.01,2013-02-19 01:56:00,
2013-02-18 21:01:00,24.3,10.8,29.89,East,89,2.7,2.7,56,0.00,,BKN230,0.04,VWS V14.01,2013-02-19 02:01:00,
2013-02-18 21:06:00,24.3,11.2,29.89,East,89,2.2,3.1,57,0.00,,BKN230,0.04,VWS V14.01,2013-02-19 02:06:00,
2013-02-18 21:11:00,24.3,10.8,29.89,ENE,58,3.1,3.6,56,0.00,,BKN230,0.04,VWS V14.01,2013-02-19 02:11:00,
2013-02-18 21:16:00,24.3,11.2,29.89,ENE,58,3.1,3.1,57,0.00,,BKN230,0.04,VWS V14.01,2013-02-19 02:16:00,
2013-02-18 21:22:00,24.3,11.2,29.89,ESE,109,3.1,3.1,57,0.00,,BKN230,0.04,VWS V14.01,2013-02-19 02:22:00,
2013-02-18 21:27:00,24.3,11.2,29.89,ESE,109,0.0,0.0,57,0.00,,BKN230,0.04,VWS V14.01,2013-02-19 02:27:00,
2013-02-18 21:32:00,24.4,11.4,29.89,SE,145,4.9,4.9,57,0.00,,BKN210,0.04,VWS V14.01,2013-02-19 02:32:00,
2013-02-18 21:37:00,24.4,11.4,29.89,SSE,150,4.9,4.9,57,0.00,,BKN210,0.04,VWS V14.01,2013-02-19 02:37:00,
2013-02-18 21:42:00,24.6,11.6,29.89,SE,146,3.1,3.6,57,0.00,,BKN210,0.04,VWS V14.01,2013-02-19 02:42:00,
2013-02-18 21:47:00,25.0,11.5,29.89,SSE,150,2.7,4.0,56,0.00,,BKN210,0.04,VWS V14.01,2013-02-19 02:47:00,
2013-02-18 21:52:00,25.5,12.0,29.89,SSE,151,3.1,5.8,56,0.00,,BKN210,0.04,VWS V14.01,2013-02-19 02:52:00,
2013-02-18 21:57:00,25.9,12.4,29.89,SE,140,5.4,5.4,56,0.00,,BKN210,0.04,VWS V14.01,2013-02-19 02:57:00,
2013-02-18 22:04:00,26.8,12.4,29.89,SSE,168,5.8,5.8,54,0.00,,BKN210,0.04,VWS V14.01,2013-02-19 03:04:00,
2013-02-18 22:09:00,27.0,12.6,29.86,South,183,4.9,6.3,54,0.00,,BKN210,0.04,VWS V14.01,2013-02-19 03:09:00,
2013-02-18 22:14:00,27.1,12.3,29.86,SSE,163,5.8,6.3,53,0.00,,BKN210,0.04,VWS V14.01,2013-02-19 03:14:00,
2013-02-18 22:19:00,27.5,12.6,29.86,SSE,150,5.4,6.3,53,0.00,,BKN210,0.04,VWS V14.01,2013-02-19 03:19:00,
2013-02-18 22:24:00,27.9,13.0,29.86,SSE,168,5.4,7.6,53,0.00,,BKN210,0.04,VWS V14.01,2013-02-19 03:24:00,
2013-02-18 22:30:00,27.9,13.0,29.86,South,172,4.9,7.6,53,0.00,,BKN210,0.04,VWS V14.01,2013-02-19 03:30:00,
2013-02-18 22:35:00,27.9,12.5,29.86,SSE,153,4.5,6.3,52,0.00,,SCT250,0.04,VWS V14.01,2013-02-19 03:35:00,
2013-02-18 22:40:00,27.9,12.5,29.86,SE,138,3.6,6.3,52,0.00,,SCT250,0.04,VWS V14.01,2013-02-19 03:40:00,
2013-02-18 22:45:00,28.0,13.1,29.86,SE,144,6.7,6.7,53,0.00,,SCT250,0.04,VWS V14.01,2013-02-19 03:45:00,
2013-02-18 22:50:00,28.4,13.5,29.86,SSE,168,3.1,5.8,53,0.00,,SCT250,0.04,VWS V14.01,2013-02-19 03:50:00,
2013-02-18 22:55:00,28.6,13.6,29.86,South,171,4.9,5.4,53,0.00,,SCT250,0.04,VWS V14.01,2013-02-19 03:55:00,
2013-02-18 23:00:00,29.1,14.1,29.86,SSE,162,4.9,5.4,53,0.00,,SCT250,0.04,VWS V14.01,2013-02-19 04:00:00,
2013-02-18 23:05:00,29.8,15.2,29.86,South,171,5.8,5.8,54,0.00,,SCT250,0.04,VWS V14.01,2013-02-19 04:05:00,
2013-02-18 23:10:00,30.4,15.3,29.86,SSE,166,5.4,8.7,53,0.00,,SCT250,0.04,VWS V14.01,2013-02-19 04:10:00,
2013-02-18 23:16:00,30.7,16.1,29.86,SSE,165,5.4,6.3,54,0.00,,SCT250,0.04,VWS V14.01,2013-02-19 04:16:00,
2013-02-18 23:21:00,30.9,16.2,29.83,SSE,163,6.3,6.3,54,0.00,,SCT250,0.04,VWS V14.01,2013-02-19 04:21:00,
2013-02-18 23:26:00,31.3,16.6,29.83,SSE,168,7.6,8.3,54,0.00,,SCT250,0.04,VWS V14.01,2013-02-19 04:26:00,
2013-02-18 23:31:00,31.6,16.9,29.83,SSW,195,7.6,8.1,54,0.00,,SCT250,0.04,VWS V14.01,2013-02-19 04:31:00,
2013-02-18 23:36:00,31.8,17.1,29.83,SSE,168,5.4,5.8,54,0.00,,SCT250,0.04,VWS V14.01,2013-02-19 04:36:00,
2013-02-18 23:41:00,32.2,17.0,29.83,South,179,8.3,8.3,53,0.00,,SCT250,0.04,VWS V14.01,2013-02-19 04:41:00,
2013-02-18 23:47:00,32.5,17.3,29.83,SSE,148,10.1,10.1,53,0.00,,SCT250,0.04,VWS V14.01,2013-02-19 04:47:00,
2013-02-18 23:52:00,32.7,17.5,29.83,South,176,8.7,10.1,53,0.00,,SCT250,0.04,VWS V14.01,2013-02-19 04:52:00,
2013-02-18 23:57:00,32.9,17.7,29.83,SSE,159,6.7,8.3,53,0.00,,SCT250,0.04,VWS V14.01,2013-02-19 04:57:00,